Weather History for ENFB - February, 2013

Change the Weather History Date:

Friday, February 15, 2013

  Actual Average Record
Temperature  
Mean Temperature 34 °F -  
Max Temperature 44 °F 36 °F 46 °F (2012)
Min Temperature 23 °F 22 °F 8 °F (1997)
Degree Days  
Heating Degree Days 32    
Moisture  
Dew Point 36 °F    
Average Humidity 85    
Maximum Humidity 93    
Minimum Humidity 76    
Precipitation  
Precipitation 0.03 in - - ()
Sea Level Pressure  
Sea Level Pressure 29.82 in    
Wind  
Wind Speed 41 mph ()    
Max Wind Speed 63 mph    
Max Gust Speed -    
Visibility 6.0 miles    
Events Rain    
Averages and records for this station are not official NWS values.
T = Trace of Precipitation, MM = Missing Value Source: Averaged Metar Reports

Daily Weather History Graph

Daily Weather History Graph

Search for Another Location

Airport or City:

Trip Planner

Search our weather history database for the weather conditions in past years. The results will help you decide how hot, cold, wet, or windy it might be!

Date:

Astronomy

Feb. 15, 2013 Rise Set
Actual Time 8:34 AM CET 5:39 PM CET
Civil Twilight 7:49 AM CET 6:25 PM CET
Nautical Twilight 6:58 AM CET 7:16 PM CET
Astronomical Twilight 6:08 AM CET 8:06 PM CET
Moon 9:17 AM CET (2/15) 12:04 AM CET (2/15)
Length of Visible Light 10h 36m
Length of Day
9h 04m
Waxing Crescent, 28% of the Moon is Illuminated
Feb 15
Waxing Crescent
Feb 17
First Quarter
Feb 25
Full
Mar 4
Last Quarter
Mar 11
New

Hourly Weather History & Observations

Time (CET) Temp. Windchill Dew Point Humidity Pressure Visibility Wind Dir Wind Speed Gust Speed Precip Events Conditions
12:20 AM 39.2 °F 23.9 °F 33.8 °F 81% 29.77 in 6.2 mi SSE 56.4 mph - N/A   Mostly Cloudy
12:50 AM 41.0 °F 26.6 °F 35.6 °F 81% 29.77 in 6.2 mi SSE 55.2 mph - N/A   Mostly Cloudy
1:00 AM 24 °F - 21 °F 85%  in - South 2.2 mph - -  
1:20 AM 41.0 °F 26.5 °F 35.6 °F 81% 29.77 in 6.2 mi SSE 56.4 mph - N/A   Overcast
1:50 AM 41.0 °F 26.9 °F 35.6 °F 81% 29.77 in 6.2 mi SSE 52.9 mph - N/A   Mostly Cloudy
2:20 AM 41.0 °F 26.6 °F 35.6 °F 81% 29.77 in 6.2 mi SSE 55.2 mph - N/A   Overcast
2:50 AM 41.0 °F 26.6 °F 33.8 °F 76% 29.77 in 6.2 mi SSE 55.2 mph - N/A   Overcast
3:20 AM 41.0 °F 26.7 °F 33.8 °F 76% 29.77 in 6.2 mi SSE 54.1 mph - N/A   Overcast
3:50 AM 39.2 °F 24.0 °F 33.8 °F 81% 29.77 in 6.2 mi SSE 55.2 mph - N/A   Mostly Cloudy
4:20 AM 41.0 °F 26.6 °F 33.8 °F 76% 29.77 in 6.2 mi SSE 55.2 mph - N/A   Overcast
4:50 AM 41.0 °F 26.7 °F 33.8 °F 76% 29.77 in 6.2 mi SSE 54.1 mph - N/A   Mostly Cloudy
5:20 AM 41.0 °F 26.7 °F 33.8 °F 76% 29.77 in 6.2 mi SSE 54.1 mph - N/A   Overcast
5:50 AM 41.0 °F 26.9 °F 33.8 °F 76% 29.77 in 6.2 mi SSE 52.9 mph - N/A   Overcast
6:20 AM 41.0 °F 26.7 °F 33.8 °F 76% 29.77 in 6.2 mi SSE 54.1 mph - N/A   Overcast
6:50 AM 39.2 °F 24.4 °F 35.6 °F 87% 29.77 in 6.2 mi SSE 51.8 mph - N/A   Overcast
7:00 AM 25 °F - 22 °F 85%  in - SE 2.2 mph - -  
7:20 AM 39.2 °F 24.0 °F 35.6 °F 87% 29.77 in 6.2 mi SSE 55.2 mph - N/A   Overcast
7:50 AM 39.2 °F 24.3 °F 35.6 °F 87% 29.80 in 6.2 mi SSE 52.9 mph - N/A   Overcast
8:20 AM 39.2 °F 24.0 °F 35.6 °F 87% 29.80 in 6.2 mi SSE 55.2 mph - N/A   Overcast
8:50 AM 39.2 °F 24.0 °F 35.6 °F 87% 29.80 in 6.2 mi SSE 55.2 mph - N/A Rain Light Rain Showers
9:20 AM 39.2 °F 24.2 °F 35.6 °F 87% 29.80 in 6.2 mi SSE 54.1 mph - N/A Rain Light Rain
9:50 AM 39.2 °F 24.3 °F 35.6 °F 87% 29.80 in 6.2 mi SSE 52.9 mph - N/A Rain Light Rain Showers
10:20 AM 39.2 °F 23.8 °F 35.6 °F 87% 29.80 in 6.2 mi SSE 57.5 mph - N/A Rain Light Rain Showers
10:50 AM 39.2 °F 24.0 °F 37.4 °F 93% 29.80 in 6.2 mi SSE 55.2 mph - N/A Rain Light Rain Showers
11:20 AM 39.2 °F 23.9 °F 37.4 °F 93% 29.80 in 5.6 mi SSE 56.4 mph - N/A Rain Light Rain
11:50 AM 39.2 °F 23.7 °F 37.4 °F 93% 29.80 in 6.2 mi SSE 58.7 mph - N/A Rain Light Rain Showers
12:20 PM 39.2 °F 23.9 °F 37.4 °F 93% 29.77 in 5.6 mi SSE 56.4 mph - N/A Rain Light Rain
12:50 PM 39.2 °F 23.9 °F 37.4 °F 93% 29.77 in 3.7 mi SSE 56.4 mph - N/A Rain Light Rain
1:00 PM 28 °F - 25 °F 84%  in - SSE 2.2 mph - -  
1:20 PM 39.2 °F 23.5 °F 37.4 °F 93% 29.77 in 4.3 mi SSE 61.0 mph - N/A   Light Drizzle
1:50 PM 41.0 °F 26.1 °F 39.2 °F 93% 29.74 in 5.6 mi SSE 61.0 mph - N/A Rain Light Rain Showers
2:20 PM 41.0 °F 25.9 °F 39.2 °F 93% 29.74 in 6.2 mi SSE 63.3 mph - N/A Rain Light Rain Showers
2:50 PM 41.0 °F 26.4 °F 39.2 °F 93% 29.74 in 5.6 mi SSE 57.5 mph - N/A   Overcast
3:20 PM 42.8 °F 29.8 °F 41.0 °F 93% 29.77 in 3.1 mi South 49.5 mph - N/A Rain Light Rain Showers
3:50 PM 44.6 °F 33.8 °F 42.8 °F 93% 29.77 in 6.2 mi SSW 36.8 mph - N/A Rain Light Rain Showers
4:20 PM 44.6 °F 35.3 °F 42.8 °F 93% 29.80 in 6.2 mi SSW 26.5 mph - N/A   Mostly Cloudy
4:50 PM 44.6 °F 35.5 °F 42.8 °F 93% 29.80 in 6.2 mi SW 25.3 mph - N/A   Mostly Cloudy
5:20 PM 44.6 °F 35.9 °F 42.8 °F 93% 29.83 in 6.2 mi SW 23.0 mph - N/A   Mostly Cloudy
5:50 PM 42.8 °F 33.5 °F 41.0 °F 93% 29.83 in 6.2 mi WSW 23.0 mph - N/A Rain Light Rain
6:20 PM 44.6 °F 36.4 °F 41.0 °F 87% 29.86 in 6.2 mi West 20.7 mph - N/A Rain Light Rain Showers
6:50 PM 44.6 °F 36.1 °F 39.2 °F 81% 29.86 in 6.2 mi West 21.9 mph - N/A   Mostly Cloudy
7:00 PM 28 °F - 26 °F 86%  in - Calm Calm - -  
7:20 PM 44.6 °F 35.9 °F 39.2 °F 81% 29.89 in 6.2 mi West 23.0 mph - N/A   Mostly Cloudy
7:50 PM 44.6 °F 36.6 °F 39.2 °F 81% 29.89 in 6.2 mi West 19.6 mph - N/A   Mostly Cloudy
8:20 PM 44.6 °F 36.4 °F 37.4 °F 76% 29.92 in 6.2 mi West 20.7 mph - N/A   Partly Cloudy
8:50 PM 44.6 °F 36.6 °F 37.4 °F 76% 29.92 in 6.2 mi West 19.6 mph - N/A   Partly Cloudy
9:20 PM 44.6 °F 37.2 °F 39.2 °F 81% 29.95 in 6.2 mi WSW 17.3 mph - N/A   Scattered Clouds
9:50 PM 44.6 °F 36.6 °F 37.4 °F 76% 29.95 in 6.2 mi WSW 19.6 mph - N/A   Partly Cloudy
10:20 PM 44.6 °F 36.6 °F 37.4 °F 76% 29.95 in 6.2 mi WSW 19.6 mph - N/A   Scattered Clouds
10:50 PM 44.6 °F 36.9 °F 37.4 °F 76% 29.98 in 6.2 mi SW 18.4 mph - N/A   Unknown
11:20 PM 44.6 °F 36.6 °F 39.2 °F 81% 29.98 in 6.2 mi SW 19.6 mph - N/A   Unknown
11:50 PM 44.6 °F 36.6 °F 39.2 °F 81% 29.98 in 6.2 mi SW 19.6 mph - N/A   Mostly Cloudy